Location: Larkspur
(54.4391°N, 113.7691°W)
Time: 22:56:43
(UTC+00:00)

CZ-4C DEB - Pass Details

Date: 23 May 2024
Orbit: 605 x 614 km, 97.8° (Epoch: 21 June)

Event Time Altitude Azimuth Distance (km) Brightness Sun altitude
Exits shadow 04:52:00 - 144° (SE) 2,024 ? -7.5°
Reaches altitude 10° 04:52:07 10° 143° (SE) 1,980 ? -7.5°
Maximum altitude 04:56:17 51° 69° (ENE) 786 ? -7.8°
Drops below altitude 10° 05:00:28 10° 353° (N) 1,992 ? -8.2°
Sets 05:02:42 0° 349° (N) 2,901 ? -8.4°
